www.pogodaiklimat.ru

Погода и климат >> Архив погоды >> Россия >> Нижегородская область >> Выкса


ПОГОДА в Выксе

  • Прогноз погоды в Выксе
  • Монитор погоды в Выксе
  • Климат города

АРХИВ ПОГОДЫ в Выксе

Время (UTC), дата Ветер
(напр.,м/с)
 
Видим.   Явления Облачность Т
(С)
Тd
(С)
f
(%)
Тe
(С)
Тes
(С)
Комфортность P
(гПа)
Po
(гПа)
Тmin
(С)
Tmax
(С)
R
(мм)
R24
(мм)
S
(см)
03 16.04 штиль 0
{2}
10 км ясно -1.1 -2.9 88 -2 -2 1021.7 1007.0 -1.2
06 16.04 штиль 0
{2}
10 км 6/0
[Cs]
+10.8 -2.2 40 +11 +18 1019.0 1005.2
09 16.04 С 3-5
{6}
10 км 6/0
[Cs]
+17.2 -5.0 22 +17 +26 1018.5 1005.0
12 16.04 СЗ 4-7
{8}
10 км 6/0
[Ac trans]
+18.4 -5.4 19 +18 +21 1018.0 1004.5
15 16.04 СЗ 3-4
{8}
10 км 8/0
[Ac trans Cs]
+17.0 -6.7 19 +17 +17 1017.7 1004.2 +18.4
18 16.04 Ю 1-1
{4}
10 км ясно +11.0 -6.0 30 +11 +11 1017.6 1003.8
21 16.04 Ю 1-2
{2}
10 км 10/0
[As op]
+5.9 -1.4 59 +5 +5 1017.9 1003.8
00 17.04 Ю 1-2
{2}
10 км 10/0
[As op]
+4.9 -1.0 66 +4 +4 1016.4 1002.4
03 17.04 Ю 1-2
{2}
10 км 10/0
[Ac As]
+6.1 -1.1 60 +5 +6 1016.7 1002.6 +4.8
06 17.04 С 1-2
{3}
10 км 9/0
[Ac trans]
+14.7 -0.9 34 +15 +19 1016.5 1002.9
09 17.04 З 2-4
{5}
10 км 4/0
[Ci fib]
+19.7 0.0 27 +20 +31 1016.2 1002.9
12 17.04 С 1-2
{6}
10 км 9/6 600 м
[Cu hum Cs]
+20.1 0.0 26 +21 +24 комфорт 1015.2 1001.9
15 17.04 З 2-3
{5}
10 км 9/6 600 м
[Cu hum Cs]
+19.0 +1.9 32 +20 +20 1014.7 1001.4 +20.1
18 17.04 штиль 0
{3}
10 км 10/0
[Ac As]
+12.2 +2.9 53 +12 +12 1015.3 1001.7
21 17.04 штиль 0
{3}
10 км 8/0
[As op]
+7.9 +3.2 72 +7 +7 1015.3 1001.4
00 18.04 Ю 1-2
{2}
10 км 10/0
[Ac As]
+5.7 +2.8 82 +5 +5 1014.5 1000.5
03 18.04 Ю 2-3
{3}
10 км 10/10 420 м
[Sc]
+9.2 +4.5 72 +8 +8 1013.5 999.7 +5.6
06 18.04 ЮВ 2-3
{3}
10 км слабый дождь 10/10 400 м
[Sc]
+9.5 +8.2 92 +8 +8 1013.2 999.3
09 18.04 ЮВ 2-4
{5}
10 км слабый дождь 10/0
[Ac As]
+12.1 +10.4 89 +11 +15 1010.8 997.2
12 18.04 ЮВ 1-3
{5}
10 км {дождь} 10/0
[Ac As]
+13.1 +9.8 80 +13 +16 1009.1 995.6
15 18.04 ЮВ 2-5
{5}
10 км 10/10 420 м
[Sc]
+12.5 +8.9 79 +12 +12 1008.1 994.6 +13.1 4
18 18.04 СЗ 2-3
{5}
10 км слабый дождь 10/10 420 м
[Sc]
+8.9 +7.7 92 +7 +7 1006.8 993.1
21 18.04 СЗ 2-2
{5}
10 км слабый дождь 10/10 210 м
[Sc]
+8.1 +7.3 95 +6 +6 1004.5 990.8
00 19.04 СВ 4-6
{6}
10 км слабый дождь 10/10 210 м
[Sc]
+7.7 +6.8 94 +4 +4 1002.2 988.4
03 19.04 С 5-8
{9}
4000 м слабый дождь 10/10 210 м
[Sc]
+6.4 +5.5 94 +2 +2 999.8 986.0 +6.3 15
06 19.04 СВ 5-8
{9}
10 км слабый дождь 10/10 300 м
[Sc]
+5.9 +5.2 95 +1 +1 999.6 985.5 +5.8
09 19.04 СВ 4-7
{9}
10 км {дождь} 10/0 300 м
[As op]
+5.8 +4.6 92 +2 +3 1000.0 986.2
12 19.04 СВ 4-8
{8}
10 км {дождь} 10/0 300 м
[As op]
+6.2 +5.1 93 +2 +3 1001.2 987.4
15 19.04 С 4-6
{9}
4000 м слабый дождь 10/10 210 м
[Sc]
+6.2 +6.0 99 +2 +2 1002.8 989.0 +6.4 5
18 19.04 С 4-6
{6}
10 км слабый дождь 10/10 210 м
[Sc]
+6.1 +5.6 97 +2 +2 1004.4 990.6
21 19.04 С 4-6
{7}
10 км {дождь} 10/10 300 м
[Sc]
+6.5 +5.4 93 +3 +3 1005.0 991.2
00 20.04 С 4-7
{7}
10 км {дождь} 10/10 300 м
[Sc]
+4.8 +3.3 90 +1 +1 1007.1 993.2
03 20.04 С 4-7
{7}
10 км 3/0
[Ci fib]
+3.0 +0.6 84 -2 -1 1008.2 994.2 +2.9 1
06 20.04 С 6-10
{10}
10 км 3/0
[Ci fib]
+8.0 +0.2 58 +4 +7 1009.2 995.4
09 20.04 С 8-12
{13}
10 км 8/8 600 м
[Cu hum]
+11.2 -1.2 42 +8 +9 1010.2 996.6
12 20.04 С 7-11
{13}
10 км 8/8 600 м
[Cu hum]
+12.4 -2.2 36 +10 +10 1010.8 997.1
15 20.04 С 6-9
{12}
10 км ясно +11.3 -3.6 35 +9 +9 1010.9 997.3 +12.4
18 20.04 СВ 2-3
{8}
10 км ясно +5.6 -5.5 45 +4 +4 1012.1 998.1
21 20.04 штиль 0
{3}
10 км ясно +4.0 -5.5 50 +4 +4 1012.2 998.1
00 21.04 Ю 1-2
{2}
10 км ясно 0.0 -2.1 86 -2 -2 1011.8 997.5
03 21.04 Ю 2-3
{4}
10 км 10/0
[As op]
+1.9 -2.8 71 -1 -1 1009.2 995.1 -0.1
06 21.04 Ю 2-5
{5}
10 км слабый дождь 10/0 480 м
[As op]
+4.0 +0.9 80 +1 +3 1005.2 991.2
09 21.04 Ю 4-7
{10}
10 км слабый дождь 10/0 400 м
[As op]
+7.4 +3.2 75 +4 +6 1000.7 987.0
12 21.04 Ю 5-10
{11}
10 км {дождь} 9/0
[Ac As]
+11.4 +5.8 68 +9 +11 995.0 981.6
15 21.04 ЮЗ 4-8
{10}
10 км 8/0
[Ac As]
+17.2 +5.9 47 +17 +17 988.7 975.6 +17.2 3
18 21.04 З 7-10
{14}
10 км слабый дождь 10/10 270 м
[Sc]
+11.0 +9.0 87 +8 +8 981.7 971.9
21 21.04 З 4-6
{11}
10 км {дождь} 6/6 600 м
[Sc]
+9.6 +8.0 90 +7 +7 985.3 971.9
00 22.04 З 5-9
{13}
10 км {дождь} 10/10 480 м
[Sc]
+6.2 +3.3 82 +2 +2 984.1 970.6
03 22.04 СЗ 9-13
{16}
10 км {дождь} 10/10 600 м
[Sc]
+1.6 -0.9 83 -6 -6 986.4 972.7 +1.5 6
06 22.04 СЗ 10-15
{16}
10 км слабый снег {дождь} 10/10 330 м
[Sc]
+1.3 -2.5 76 -6 -6 989.7 975.8 +1.2
09 22.04 СЗ 9-14
{16}
10 км {снег} 9/9 600 м
[Sc]
+1.0 -2.9 75 -6 -6 993.6 979.7
12 22.04 СЗ 6-12
{14}
10 км слабый снег 10/10 330 м
[Sc]
+1.4 -3.1 72 -5 -5 997.2 983.2
15 22.04 С 6-10
{14}
10 км {снег} 9/9 600 м
[Cb cap]
+1.1 -4.1 68 -5 -5 999.9 985.9 +1.6 0.0
18 22.04 С 5-8
{12}
10 км слабый снег 9/9 600 м
[Sc]
+0.1 -3.3 78 -6 -6 1002.5 988.3
21 22.04 С 3-4
{9}
10 км слабый снег 10/10 400 м
[Sc]
-0.9 -2.2 91 -6 -6 1003.9 989.7

 

Местоположение метеостанции Выкса (Нижегородская область, Россия): широта 55.33 долгота 42.12 высота над уровнем моря 114 м.

В архиве по умолчанию представлена погода в Выксе за последнюю неделю. Архивные данные за месяц целиком и за предыдущие месяцы, начиная с января 2011 года, Вы можете получить, выбрав интересующий диапазон дат из раскрывающегося списка и нажав кнопку "Ввод!".


*Определитесь, кто Вы:
робот инопланетянин человек

Внимание! Время в таблицах - всемирное. Для получения местного времени необходимо прибавить поправку, которая в Выксе равна 3 ч.

Смотрите также архив погоды в соседних городах и на ближайших метеорологических станциях:

Погода в Муроме (Владимирская область, Россия) (31 км)
Погода в Елатьме (Рязанская область, Россия) (48 км)
Погода в Павлово (Нижегородская область, Россия) (90 км)
Погода в Вязниках (Владимирская область, Россия) (97 км)
Погода в Гусь-Хрустальный (Владимирская область, Россия) (97 км)
Погода в Туме (Рязанская область, Россия) (102 км)
Погода в Арзамасе (Нижегородская область, Россия) (105 км)
Погода в Темникове (Мордовия, Россия) (105 км)
Погода в Сасово (Рязанская область, Россия) (109 км)
Погода в Коврове (Владимирская область, Россия) (124 км)

Пояснения к столбцам:

Ветер - указаны скорость ветра в м/с - средняя за 10 мин, порывы в срок и между сроками (в фигурных скобках) и направление, откуда дует ветер: С - северный, СВ - северо-восточный, В - восточный, ЮВ - юго-восточный, Ю - южный, ЮЗ - юго-западный, З - западный, СЗ - северо-западный.
Видимость - горизонтальная дальность видимости в метрах или километрах. При видимости от 1 до 10 км при отсутствии осадков обычно наблюдается дымка, при ухудшении видимости до 1 км и менее - туман. В сухую погоду видимость может ухудшаться дымом, пылью или мглою.
Явления - указаны атмосферные явления, наблюдавшиеся в срок или в последний час перед сроком; фигурными скобками обозначены явления, наблюдавшиеся между сроками (за 1-3 часа до срока); квадратными скобками обозначены град или гололедные отложения с указанием их диаметра в мм.
Облачность - указаны через наклонную черту общая и нижняя облачность в баллах и высота нижней границы облаков в метрах; квадратными скобками обозначены формы облаков: Ci - перистые, Cs - перисто-слоистые, Cc - перисто-кучевые, Ac - высококучевые, As - высокослоистые, Sc - слоисто-кучевые, Ns - слоисто-дождевые, Cu - кучевые, Cb - кучево-дождевые. Подробнее классификацию облаков см. в Атласе облаков (PDF).
T - Температура воздуха - температура, измеренная на высоте 2 м над землей.
Td - Температура точки росы - температура, при понижении до которой содержащийся в воздухе водяной пар достигнет насыщения.
f - Относительная влажность воздуха - влажноcть воздуха, измеренная на высоте 2 м над землей.
Te - Эффективная температура - температура, которую ощущает одетый по сезону человек в тени. Характеристика душности погоды. При расчете учитывается влияние влажности воздуха и скорости ветра на теплоощущения человека.
Tes - Эффективная температура на солнце - температура, которую ощущает человек, с поправкой на солнечный нагрев. Характеристика знойности погоды. Зависит от высоты солнца над горизонтом, облачности и скорости ветра. Ночью, в пасмурную погоду, а также при ветре 12 м/с и более поправка равна нулю.
P - Атмосферное давление - приведенное к уровню моря атмосферное давление.
Po - Атмосферное давление - измеренное на уровне метеостанции атмосферное давление.
Tmin - Минимальная температура - минимум температуры воздуха на высоте 2 м над землей.
Tmax - Максимальная температура - максимум температуры воздуха на высоте 2 м над землей.
R - Количество осадков - Количество выпавших осадков за период времени, мм. При наведении курсора мыши на число - период времени, за который выпало указанное количество осадков.
R24 - Количество осадков - Количество выпавших осадков за 24 часа, мм.
S - Снежный покров - Высота снежного покрова, см. При наведении курсора мыши на число - состояние снежного покрова и степень покрытия местности в баллах.